#timestamp,LO_Frequency,Hit,StdDev 
1671620415.4,286047000.9,N
1671620435.2,286047001.0,N
1671620455.0,286047001.0,N
1671620455.9,286047001.0,N
1671620475.8,286046998.4,N
1671620495.6,286046998.4,N
1671620515.4,286047001.1,N
1671620535.3,286046998.9,N
1671620555.1,286046998.4,N
1671620575.9,286046999.2,N
1671620595.7,286047000.8,N
1671620615.5,286047001.8,N
1671620635.4,286046999.9,N
1671620655.2,286047000.9,N
1671620675.0,286047000.1,N
1671620675.9,286047000.1,N
1671620695.8,286046999.8,N
1671620715.6,286047002.3,N
1671620735.5,286047004.0,N
1671620755.3,286047001.6,N
1671620775.1,286047001.9,N
1671620795.9,286047001.6,N
1671620815.7,286047003.9,N
1671620835.6,286047004.3,N
1671620855.4,286047001.4,N
1671620875.2,286047000.1,N
1671620895.1,286046998.2,N
1671620896.0,286046998.2,N
1671620915.8,286046998.2,N
1671620935.7,286046998.2,N
1671620955.5,286046998.4,N
1671620975.3,286047000.5,N
1671620995.2,286046999.7,N
1671621015.9,286047002.7,N
1671621035.7,286047000.1,N
1671621055.6,286046999.7,N
1671621075.4,286047000.3,N
1671621095.3,286047000.1,N
1671621115.1,286047001.4,N
1671621116.0,286047001.4,N
1671621135.8,286047001.5,N
1671621155.7,286047005.6,Y
1671621175.5,286047003.8,P
1671621195.3,286047001.8,N
1671621215.2,286047002.4,N
1671621235.0,286047000.0,N
1671621235.9,286047000.0,N
1671621255.8,286047000.0,N
1671621275.6,286046999.9,N
1671621295.4,286046998.1,N
1671621315.3,286047002.1,N
1671621335.1,286047004.0,N
1671621355.8,286047002.6,N
1671621375.7,286047002.4,N
1671621395.5,286046998.6,N
1671621415.4,286047000.0,N
1671621435.2,286047000.7,N
1671621455.0,286047000.4,N
1671621455.9,286047000.4,N
1671621475.8,286047000.9,N
1671621495.6,286047002.8,N
1671621515.5,286047000.0,N
1671621535.3,286046999.7,N
1671621555.1,286047000.1,N
1671621575.9,286047000.2,N
1671621595.7,286047001.2,N
1671621615.5,286047000.9,N
1671621635.4,286047001.4,N
1671621655.2,286047002.0,N
1671621675.1,286047001.2,N
1671621676.0,286047001.2,N
1671621695.8,286046998.1,N
1671621715.6,286047002.3,N
1671621735.5,286047000.0,N
1671621755.3,286047000.1,N
1671621775.1,286047000.1,N
1671621795.9,286047002.4,N
1671621815.7,286047004.7,Y
1671621835.6,286047008.9,P
1671621855.4,286047006.5,N
1671621875.2,286047003.5,N
1671621895.1,286047004.3,N
1671621896.0,286047004.3,N
1671621915.8,286046999.8,N
1671621935.6,286047001.7,N
1671621955.5,286047001.7,N
1671621975.3,286047000.7,N
1671621995.2,286047000.0,N
1671622015.9,286047017.7,Y
1671622035.7,286047015.0,P
1671622055.6,286047010.8,N
1671622075.4,286047005.2,N
1671622095.3,286047002.6,N
1671622115.1,286047000.1,N
1671622116.0,286047000.1,N
1671622135.8,286046998.8,N
1671622155.7,286046998.8,N
1671622175.5,286046994.9,N
1671622195.3,286046995.2,N
1671622215.2,286046995.6,N
1671622235.0,286046993.3,N
1671622235.9,286046993.3,N
1671622255.8,286046994.4,N
1671622275.6,286046991.9,N
1671622295.4,286046992.2,N
1671622315.3,286046991.9,N
1671622335.1,286046992.8,N
1671622355.9,286046992.7,N
1671622375.7,286046992.6,N
1671622395.5,286046993.1,N
1671622415.4,286046993.1,N
1671622435.2,286046992.6,N
1671622455.0,286046992.4,N
1671622455.9,286046992.4,N
1671622475.8,286046990.1,N
1671622495.6,286046990.1,N
1671622515.5,286046990.4,N
1671622535.3,286046992.8,N
1671622555.1,286046992.7,N
1671622575.9,286046991.8,N
1671622595.7,286046992.7,N
1671622615.6,286046991.9,N
1671622635.4,286046992.8,N
1671622655.2,286046990.2,Y
1671622675.1,286046998.5,P
1671622676.0,286046998.5,N
1671622695.8,286046998.5,N
1671622715.7,286046999.6,N
1671622735.5,286046996.9,N
1671622755.3,286046996.9,N
1671622775.2,286046997.7,N
1671622795.0,286046997.1,N
1671622795.9,286046997.1,N
1671622815.7,286046997.5,N
1671622835.6,286046997.7,N
1671622855.4,286046997.5,N
1671622875.3,286046996.5,N
1671622895.1,286046997.9,N
1671622896.0,286046997.9,N
1671622915.8,286046995.1,Y
1671622935.7,286046998.7,P
1671622955.5,286047000.9,N
1671622975.3,286047000.3,N
1671622995.2,286046998.2,N
1671623015.0,286047000.4,N
1671623015.9,286047000.4,N
1671623035.8,286047001.1,N
1671623055.6,286047000.0,N
1671623075.4,286047002.4,N
1671623095.3,286046999.7,N
1671623115.1,286047002.6,N
1671623135.9,286047002.3,N
1671623155.7,286047002.4,N
1671623175.5,286047001.2,N
1671623195.4,286047001.2,N
1671623215.2,286046998.6,N
1671623235.1,286047000.4,N
1671623236.0,286047000.4,N
1671623255.8,286047000.4,N
1671623275.6,286047002.3,N
1671623295.5,286047002.3,N
1671623315.3,286046999.7,N
1671623335.1,286046998.1,N
1671623355.9,286046999.5,N
1671623375.7,286046998.8,N
1671623395.6,286047000.9,N
1671623415.4,286046998.6,N
1671623435.2,286047000.3,N
1671623455.1,286046999.8,N
1671623456.0,286046999.8,N
1671623475.8,286047001.9,N
1671623495.7,286047002.4,N
1671623515.5,286047000.0,N
1671623535.3,286047002.7,N
1671623555.2,286047000.1,N
1671623575.0,286047001.0,N
1671623575.9,286047001.0,N
1671623595.8,286047001.2,N
1671623615.6,286046999.8,N
1671623635.4,286047002.6,N
1671623655.3,286047002.3,N
1671623675.1,286047002.3,N
1671623695.8,286047001.6,N
1671623715.7,286047002.8,N
1671623735.5,286046999.8,N
1671623755.4,286046999.7,N
1671623775.2,286047000.3,N
1671623795.0,286046998.6,N
1671623795.9,286046998.6,N
1671623815.8,286046998.6,N
1671623835.6,286046999.9,N
1671623855.5,286047002.0,N
1671623875.3,286046999.9,N
1671623895.1,286047000.0,N
1671623915.9,286047000.3,N
1671623935.7,286047000.6,N
1671623955.6,286047001.1,N
1671623975.4,286047001.1,N
1671623995.2,286047001.6,N
